This demonstration page uses our WeatherBlox Daily Observations layout. Learn more.

Left ArrowRight Arrow

34.02893, -84.19858

Hourly Observations for August 4, 2022

Temp ( °F °C ) Dew Point ( °F °C ) Humidity (%) Winds ( mph kmh ) Pressure ( in mb ) Visibility ( mi km ) Precip ( " mm )
12:53 am 00:53 Clear 73 22.8 69 20.6 87 87 E 3 6 30.08 1019 10 16 0.00 0.00
1:51 am 01:51 Mostly Clear 72 22 70 21 94 94 Calm 30.09 1019 10 16 0.00 0.00
1:53 am 01:53 Mostly Clear 73 22.8 70 21.1 90 90 VRB 3 6 30.06 1018 10 16 0.00 0.00
2:53 am 02:53 Clear 72 22.2 69 20.6 91 91 Calm 30.04 1017 10 16 0.00 0.00
3:53 am 03:53 Clear 71 21.7 69 20.6 94 94 Calm 30.02 1017 10 16 0.00 0.00
4:53 am 04:53 Clear 70 21.1 68 20 93 93 VRB 3 6 30.02 1017 10 16 0.00 0.00
5:53 am 05:53 Clear 70 21.1 68 20 93 93 Calm 30.03 1017 10 16 0.00 0.00
6:53 am 06:53 Sunny 70 21.1 68 20 93 93 Calm 30.06 1018 10 16 0.00 0.00
7:53 am 07:53 Sunny 72 22.2 68 20 87 87 Calm 30.08 1019 10 16 0.00 0.00
8:51 am 08:51 Mostly Sunny 73 23 70 21 89 89 Calm 30.11 1020 10 16 0.00 0.00
8:53 am 08:53 Mostly Sunny 74 23.3 70 21.1 88 88 Calm 30.10 1019 10 16 0.00 0.00
9:03 am 09:03 Mostly Cloudy 75 23.9 70 21.1 84 84 VRB 3 6 30.11 1020 10 16 0.00 0.00
9:53 am 09:53 Mostly Cloudy 75 23.9 70 21.1 84 84 Calm 30.11 1020 10 16 0.00 0.00
10:53 am 10:53 Mostly Sunny 80 26.7 72 22.2 76 76 Calm 30.10 1019 10 16 0.00 0.00
11:53 am 11:53 Partly Cloudy 83 28.3 72 22.2 70 70 VRB 3 6 30.11 1020 10 16 0.00 0.00
12:53 pm 12:53 Mostly Cloudy 85 29.4 72 22.2 65 65 VRB 5 7 30.10 1019 10 16 0.00 0.00
1:53 pm 13:53 Mostly Sunny 86 30 72 22.2 63 63 VRB 3 6 30.08 1019 10 16 0.00 0.00
2:53 pm 14:53 Mostly Sunny 88 31.1 71 21.7 57 57 SSE 5 7 30.07 1018 10 16 0.00 0.00
3:53 pm 15:53 Mostly Sunny 89 31.7 70 21.1 53 53 VRB 3 6 30.04 1017 10 16 0.00 0.00
4:34 pm 16:34 Partly Cloudy with Nearby Thunderstorms 88 31.1 69 20.6 54 54 SE 6 9 30.02 1016 10 16 0.00 0.00
4:53 pm 16:53 Partly Cloudy with Nearby Thunderstorms 85 29.4 69 20.6 59 59 SE 3 6 30.02 1017 10 16 0.00 0.00
5:35 pm 17:35 Mostly Cloudy 83 28.3 71 21.7 67 67 W 8 13 30.03 1017 10 16 0.00 0.00
5:53 pm 17:53 Partly Cloudy 86 30 72 22.2 63 63 NNW 6 9 30.02 1017 10 16 0.00 0.00
6:21 pm 18:21 Mostly Cloudy with Nearby Thunderstorms 83 28.3 71 21.7 67 67 SSE 14 22 30.05 1017 4 6 0.00 0.00
6:23 pm 18:23 Mostly Cloudy with Nearby Thunderstorms 80 26.7 72 22.2 76 76 SE 14 22 30.05 1018 2 3 0.11 2.79
6:35 pm 18:35 Cloudy with Nearby Thunderstorms 75 23.9 72 22.2 90 90 NNE 3 6 30.06 1018 4 6 0.16 4.06
6:53 pm 18:53 Mostly Cloudy with Nearby Thunderstorms 79 26.1 72 22.2 79 79 WSW 3 6 30.05 1018 10 16 0.16 4.06
7:53 pm 19:53 Sunny with Nearby Thunderstorms 77 25 74 23.3 90 90 NNE 3 6 30.06 1018 10 16 0.00 0.00
8:00 pm 20:00 Sunny 78 25.6 73 22.8 85 85 Calm 30.05 1018 10 16 0.00 0.00
8:53 pm 20:53 Clear 77 25 72 22.2 85 85 Calm 30.07 1018 10 16 0.00 0.00
9:53 pm 21:53 Clear 75 23.9 73 22.8 94 94 Calm 30.09 1019 10 16 0.00 0.00
10:53 pm 22:53 Clear 74 23.3 72 22.2 94 94 Calm 30.09 1019 10 16 0.00 0.00
11:53 pm 23:53 Clear 73 22.8 72 22.2 96 96 Calm 30.09 1019 10 16 0.00 0.00

Powered by AerisWeather